| time (UTC) | temp F | wind direction | speed MPH | gust MPH | rain 1hr in | rain 24hr in | rain mn in | humidity % | barometer mb |
| 20260508155630 | 56 | 319 | 2.0 | 5.0 | 0.00 | 0.00 | 0.00 | 61 | 1015.7 |
| 20260508154618 | 54 | 287 | 2.0 | 4.0 | 0.00 | 0.00 | 0.00 | 62 | 1015.8 |
| 20260508153626 | 54 | 281 | 2.0 | 5.0 | 0.00 | 0.00 | 0.00 | 62 | 1015.8 |
| 20260508152613 | 54 | 294 | 4.0 | 6.0 | 0.00 | 0.00 | 0.00 | 62 | 1015.6 |
| 20260508151619 | 54 | 298 | 3.0 | 6.0 | 0.00 | 0.00 | 0.00 | 62 | 1015.6 |
| 20260508150628 | 54 | 307 | 3.0 | 6.0 | 0.00 | 0.00 | 0.00 | 62 | 1015.6 |
| 20260508145651 | 53 | 286 | 3.0 | 5.0 | 0.00 | 0.00 | 0.00 | 62 | 1015.5 |
| 20260508144619 | 53 | 335 | 2.0 | 4.0 | 0.00 | 0.00 | 0.00 | 61 | 1015.5 |
| 20260508143650 | 52 | 338 | 1.0 | 5.0 | 0.00 | 0.00 | 0.00 | 62 | 1015.5 |
| 20260508142617 | 51 | 313 | 2.0 | 4.0 | 0.00 | 0.00 | 0.00 | 62 | 1015.5 |
| 20260508141627 | 50 | 156 | 1.0 | 3.0 | 0.00 | 0.00 | 0.00 | 59 | 1015.4 |
| 20260508140614 | 48 | 148 | 2.0 | 3.0 | 0.00 | 0.00 | 0.00 | 60 | 1015.4 |
| 20260508135629 | 46 | 155 | 0.0 | 3.0 | 0.00 | 0.00 | 0.00 | 61 | 1015.4 |
| 20260508134613 | 45 | 155 | 3.0 | 5.0 | 0.00 | 0.00 | 0.00 | 60 | 1015.4 |
| 20260508133622 | 45 | 155 | 4.0 | 6.0 | 0.00 | 0.00 | 0.00 | 58 | 1015.4 |
| 20260508132629 | 46 | 156 | 3.0 | 5.0 | 0.00 | 0.00 | 0.00 | 55 | 1015.3 |
| 20260508131638 | 47 | 5 | 0.0 | 3.0 | 0.00 | 0.00 | 0.00 | 51 | 1015.2 |
| 20260508130621 | 49 | 5 | 0.0 | 5.0 | 0.00 | 0.00 | 0.00 | 48 | 1015.1 |
| 20260508125638 | 52 | 255 | 3.0 | 8.0 | 0.00 | 0.00 | 0.00 | 42 | 1015.0 |
| 20260508124631 | 52 | 122 | 6.0 | 9.0 | 0.00 | 0.00 | 0.00 | 37 | 1014.7 |
| 20260508123640 | 51 | 130 | 5.0 | 9.0 | 0.00 | 0.00 | 0.00 | 38 | 1014.6 |
| 20260508122629 | 51 | 107 | 6.0 | 9.0 | 0.00 | 0.00 | 0.00 | 38 | 1014.5 |
| 20260508121617 | 52 | 136 | 6.0 | 9.0 | 0.00 | 0.00 | 0.00 | 37 | 1014.4 |
| 20260508120636 | 52 | 141 | 7.0 | 10.0 | 0.00 | 0.00 | 0.00 | 37 | 1014.4 |
| 20260508115618 | 52 | 121 | 8.0 | 10.0 | 0.00 | 0.00 | 0.00 | 37 | 1014.3 |
| 20260508114626 | 53 | 135 | 6.0 | 10.0 | 0.00 | 0.00 | 0.00 | 36 | 1014.1 |
| 20260508113652 | 53 | 142 | 7.0 | 12.0 | 0.00 | 0.00 | 0.00 | 36 | 1014.1 |
| 20260508112617 | 53 | 132 | 6.0 | 9.0 | 0.00 | 0.00 | 0.00 | 36 | 1014.1 |
| 20260508111626 | 53 | 139 | 6.0 | 12.0 | 0.00 | 0.00 | 0.00 | 36 | 1014.1 |
| 20260508110637 | 53 | 71 | 7.0 | 13.0 | 0.00 | 0.00 | 0.00 | 37 | 1014.0 |
| 20260508105617 | 52 | 118 | 7.0 | 11.0 | 0.00 | 0.00 | 0.00 | 38 | 1013.9 |
| 20260508104624 | 52 | 170 | 7.0 | 9.0 | 0.00 | 0.00 | 0.00 | 39 | 1014.0 |
| 20260508103630 | 51 | 125 | 7.0 | 11.0 | 0.00 | 0.00 | 0.00 | 41 | 1014.0 |
| 20260508102622 | 49 | 135 | 8.0 | 10.0 | 0.00 | 0.00 | 0.00 | 44 | 1013.9 |
| 20260508101630 | 50 | 132 | 7.0 | 10.0 | 0.00 | 0.00 | 0.00 | 44 | 1013.9 |
| 20260508100618 | 49 | 111 | 9.0 | 12.0 | 0.00 | 0.00 | 0.00 | 44 | 1014.0 |
| 20260508095612 | 50 | 144 | 6.0 | 9.0 | 0.00 | 0.00 | 0.00 | 44 | 1014.0 |
| 20260508094621 | 51 | 128 | 7.0 | 11.0 | 0.00 | 0.00 | 0.00 | 42 | 1013.9 |
| 20260508093630 | 51 | 130 | 4.0 | 8.0 | 0.00 | 0.00 | 0.00 | 42 | 1013.8 |
| 20260508092618 | 51 | 126 | 5.0 | 8.0 | 0.00 | 0.00 | 0.00 | 41 | 1013.7 |
| 20260508091627 | 50 | 165 | 6.0 | 9.0 | 0.00 | 0.00 | 0.00 | 44 | 1013.6 |
| 20260508090615 | 50 | 130 | 7.0 | 9.0 | 0.00 | 0.00 | 0.00 | 43 | 1013.6 |
| 20260508085626 | 49 | 110 | 7.0 | 10.0 | 0.00 | 0.00 | 0.00 | 45 | 1013.6 |
| 20260508084616 | 50 | 136 | 6.0 | 9.0 | 0.00 | 0.00 | 0.00 | 44 | 1013.7 |
| 20260508083626 | 52 | 158 | 5.0 | 7.0 | 0.00 | 0.00 | 0.00 | 41 | 1013.8 |
| 20260508082638 | 53 | 122 | 7.0 | 10.0 | 0.00 | 0.00 | 0.00 | 39 | 1013.8 |
| 20260508081625 | 51 | 125 | 6.0 | 10.0 | 0.00 | 0.00 | 0.00 | 41 | 1013.8 |
| 20260508080652 | 51 | 130 | 6.0 | 9.0 | 0.00 | 0.00 | 0.00 | 41 | 1013.9 |
| 20260508075613 | 51 | 111 | 8.0 | 13.0 | 0.00 | 0.00 | 0.00 | 41 | 1014.0 |
| 20260508074627 | 52 | 123 | 8.0 | 13.0 | 0.00 | 0.00 | 0.00 | 40 | 1014.1 |
| 20260508073614 | 51 | 156 | 5.0 | 11.0 | 0.00 | 0.00 | 0.00 | 42 | 1014.1 |
| 20260508072620 | 51 | 132 | 6.0 | 10.0 | 0.00 | 0.00 | 0.00 | 43 | 1014.2 |
| 20260508071629 | 50 | 145 | 9.0 | 12.0 | 0.00 | 0.00 | 0.00 | 43 | 1014.2 |
| 20260508070622 | 50 | 129 | 10.0 | 13.0 | 0.00 | 0.00 | 0.00 | 44 | 1014.2 |
| 20260508065616 | 51 | 124 | 9.0 | 11.0 | 0.00 | 0.00 | 0.00 | 44 | 1014.1 |
| 20260508064622 | 51 | 121 | 8.0 | 12.0 | 0.00 | 0.00 | 0.00 | 45 | 1014.1 |
| 20260508063650 | 50 | 122 | 9.0 | 12.0 | 0.00 | 0.00 | 0.00 | 47 | 1014.1 |
| 20260508062639 | 49 | 113 | 8.0 | 11.0 | 0.00 | 0.00 | 0.00 | 50 | 1014.0 |
| 20260508061627 | 49 | 125 | 8.0 | 10.0 | 0.00 | 0.00 | 0.00 | 51 | 1014.0 |
| 20260508060629 | 49 | 120 | 8.0 | 11.0 | 0.00 | 0.00 | 0.00 | 51 | 1014.0 |
| 20260508055621 | 49 | 115 | 8.0 | 11.0 | 0.00 | 0.00 | 0.00 | 51 | 1014.1 |
| 20260508054630 | 50 | 120 | 7.0 | 10.0 | 0.00 | 0.00 | 0.00 | 50 | 1014.1 |
| 20260508053615 | 50 | 124 | 7.0 | 10.0 | 0.00 | 0.00 | 0.00 | 51 | 1014.1 |
| 20260508052625 | 50 | 122 | 7.0 | 9.0 | 0.00 | 0.00 | 0.00 | 52 | 1014.1 |
| 20260508051652 | 50 | 107 | 8.0 | 10.0 | 0.00 | 0.00 | 0.00 | 52 | 1014.1 |
| 20260508050619 | 51 | 104 | 7.0 | 12.0 | 0.00 | 0.00 | 0.00 | 53 | 1014.1 |
| 20260508045619 | 51 | 119 | 8.0 | 10.0 | 0.00 | 0.00 | 0.00 | 51 | 1014.2 |
| 20260508044649 | 52 | 132 | 7.0 | 10.0 | 0.00 | 0.00 | 0.00 | 51 | 1014.1 |
| 20260508043613 | 52 | 104 | 8.0 | 10.0 | 0.00 | 0.00 | 0.00 | 50 | 1014.1 |
| 20260508042639 | 53 | 99 | 7.0 | 10.0 | 0.00 | 0.00 | 0.00 | 49 | 1014.1 |
| 20260508041627 | 54 | 127 | 6.0 | 11.0 | 0.00 | 0.00 | 0.00 | 46 | 1014.0 |
| 20260508040619 | 54 | 146 | 4.0 | 6.0 | 0.00 | 0.00 | 0.00 | 47 | 1014.0 |
| 20260508035635 | 55 | 140 | 2.0 | 7.0 | 0.00 | 0.00 | 0.00 | 45 | 1014.0 |
| 20260508034619 | 56 | 153 | 4.0 | 9.0 | 0.00 | 0.00 | 0.00 | 45 | 1013.9 |
| 20260508033628 | 56 | 153 | 4.0 | 8.0 | 0.00 | 0.00 | 0.00 | 44 | 1013.9 |
| 20260508032615 | 54 | 130 | 7.0 | 9.0 | 0.00 | 0.00 | 0.00 | 48 | 1013.7 |
| 20260508031624 | 54 | 132 | 4.0 | 9.0 | 0.00 | 0.00 | 0.00 | 49 | 1013.7 |
| 20260508030631 | 55 | 122 | 5.0 | 7.0 | 0.00 | 0.00 | 0.00 | 47 | 1013.6 |
| 20260508025626 | 56 | 131 | 1.0 | 3.0 | 0.00 | 0.00 | 0.00 | 46 | 1013.4 |
| 20260508024612 | 57 | 131 | 3.0 | 4.0 | 0.00 | 0.00 | 0.00 | 44 | 1013.3 |
| 20260508023624 | 59 | 130 | 2.0 | 7.0 | 0.00 | 0.00 | 0.00 | 40 | 1013.2 |
| 20260508022632 | 60 | 153 | 4.0 | 8.0 | 0.00 | 0.00 | 0.00 | 39 | 1013.1 |
| 20260508021619 | 62 | 162 | 4.0 | 6.0 | 0.00 | 0.00 | 0.00 | 38 | 1013.0 |
| 20260508020644 | 63 | 143 | 4.0 | 7.0 | 0.00 | 0.00 | 0.00 | 36 | 1013.0 |
| 20260508015628 | 64 | 168 | 0.0 | 3.0 | 0.00 | 0.00 | 0.00 | 34 | 1012.9 |
| 20260508014619 | 65 | 165 | 0.0 | 7.0 | 0.00 | 0.00 | 0.00 | 31 | 1012.8 |
| 20260508013627 | 66 | 302 | 0.0 | 4.0 | 0.00 | 0.00 | 0.00 | 32 | 1012.8 |
| 20260508012613 | 66 | 313 | 2.0 | 5.0 | 0.00 | 0.00 | 0.00 | 31 | 1012.9 |
| 20260508011622 | 66 | 251 | 0.0 | 5.0 | 0.00 | 0.00 | 0.00 | 30 | 1012.7 |
| 20260508010613 | 66 | 278 | 5.0 | 11.0 | 0.00 | 0.00 | 0.00 | 29 | 1012.8 |
| 20260508005614 | 66 | 281 | 3.0 | 9.0 | 0.00 | 0.00 | 0.00 | 31 | 1012.8 |
| 20260508004620 | 66 | 266 | 6.0 | 11.0 | 0.00 | 0.00 | 0.00 | 30 | 1013.0 |
| 20260508003614 | 66 | 288 | 7.0 | 13.0 | 0.00 | 0.00 | 0.00 | 29 | 1012.9 |
| 20260508002621 | 66 | 277 | 4.0 | 16.0 | 0.00 | 0.00 | 0.00 | 31 | 1013.0 |
| 20260508001631 | 66 | 295 | 5.0 | 18.0 | 0.00 | 0.00 | 0.00 | 30 | 1013.0 |
| 20260508000614 | 66 | 5 | 6.0 | 15.0 | 0.00 | 0.00 | 0.00 | 29 | 1012.9 |
| 20260507235640 | 67 | 20 | 5.0 | 15.0 | 0.00 | 0.00 | 0.00 | 29 | 1013.0 |
| 20260507234628 | 67 | 276 | 5.0 | 12.0 | 0.00 | 0.00 | 0.00 | 31 | 1013.1 |
| 20260507233640 | 66 | 300 | 4.0 | 13.0 | 0.00 | 0.00 | 0.00 | 30 | 1013.1 |
| 20260507232629 | 66 | 272 | 4.0 | 10.0 | 0.00 | 0.00 | 0.00 | 31 | 1013.1 |
| 20260507231624 | 67 | 332 | 3.0 | 10.0 | 0.00 | 0.00 | 0.00 | 31 | 1013.2 |
| 20260507230615 | 66 | 297 | 6.0 | 14.0 | 0.00 | 0.00 | 0.00 | 30 | 1013.2 |
| 20260507225637 | 64 | 295 | 7.0 | 16.0 | 0.00 | 0.00 | 0.00 | 29 | 1013.4 |
| 20260507224623 | 62 | 273 | 6.0 | 17.0 | 0.00 | 0.00 | 0.00 | 31 | 1013.4 |
| 20260507223616 | 63 | 289 | 7.0 | 13.0 | 0.00 | 0.00 | 0.00 | 31 | 1013.4 |
| 20260507222645 | 64 | 287 | 5.0 | 14.0 | 0.00 | 0.00 | 0.00 | 35 | 1013.7 |
| 20260507221653 | 64 | 313 | 6.0 | 12.0 | 0.00 | 0.00 | 0.00 | 34 | 1013.8 |
| 20260507220621 | 64 | 153 | 6.0 | 13.0 | 0.00 | 0.00 | 0.00 | 34 | 1013.9 |
| 20260507215619 | 63 | 188 | 5.0 | 10.0 | 0.00 | 0.00 | 0.00 | 36 | 1014.0 |
| 20260507214631 | 62 | 166 | 4.0 | 9.0 | 0.00 | 0.00 | 0.00 | 38 | 1014.1 |
| 20260507213619 | 61 | 138 | 6.0 | 13.0 | 0.00 | 0.00 | 0.00 | 37 | 1014.3 |
| 20260507212629 | 61 | 137 | 3.0 | 9.0 | 0.00 | 0.00 | 0.00 | 38 | 1014.5 |
| 20260507211618 | 61 | 117 | 10.0 | 16.0 | 0.00 | 0.00 | 0.00 | 36 | 1014.6 |
| 20260507210613 | 61 | 293 | 6.0 | 11.0 | 0.00 | 0.00 | 0.00 | 36 | 1014.8 |
| 20260507205616 | 62 | 141 | 7.0 | 15.0 | 0.00 | 0.00 | 0.00 | 36 | 1014.9 |
| 20260507204624 | 62 | 286 | 4.0 | 10.0 | 0.00 | 0.00 | 0.00 | 40 | 1014.9 |
| 20260507203651 | 62 | 288 | 2.0 | 11.0 | 0.00 | 0.00 | 0.00 | 38 | 1014.8 |
| 20260507202638 | 62 | 277 | 8.0 | 13.0 | 0.00 | 0.00 | 0.00 | 38 | 1014.8 |
| 20260507201648 | 63 | 274 | 10.0 | 16.0 | 0.00 | 0.00 | 0.00 | 37 | 1014.7 |
| 20260507200617 | 63 | 279 | 6.0 | 14.0 | 0.00 | 0.00 | 0.00 | 37 | 1014.9 |
| 20260507195635 | 64 | 219 | 3.0 | 11.0 | 0.00 | 0.00 | 0.00 | 36 | 1014.7 |
| 20260507194623 | 65 | 277 | 6.0 | 11.0 | 0.00 | 0.00 | 0.00 | 37 | 1014.8 |
| 20260507193618 | 65 | 229 | 6.0 | 15.0 | 0.00 | 0.00 | 0.00 | 31 | 1014.8 |
| 20260507192646 | 66 | 241 | 5.0 | 13.0 | 0.00 | 0.00 | 0.00 | 33 | 1014.9 |
| 20260507191613 | 66 | 300 | 6.0 | 11.0 | 0.00 | 0.00 | 0.00 | 37 | 1014.9 |
| 20260507190620 | 65 | 300 | 3.0 | 12.0 | 0.00 | 0.00 | 0.00 | 37 | 1014.8 |
| 20260507185625 | 65 | 251 | 6.0 | 13.0 | 0.00 | 0.00 | 0.00 | 36 | 1014.9 |
| 20260507184633 | 63 | 273 | 5.0 | 14.0 | 0.00 | 0.00 | 0.00 | 36 | 1014.9 |
| 20260507183619 | 62 | 53 | 8.0 | 15.0 | 0.00 | 0.00 | 0.00 | 33 | 1015.0 |
| 20260507182627 | 63 | 135 | 9.0 | 16.0 | 0.00 | 0.00 | 0.00 | 32 | 1015.0 |
| 20260507181637 | 62 | 302 | 5.0 | 12.0 | 0.00 | 0.00 | 0.00 | 35 | 1015.0 |
| 20260507180619 | 62 | 144 | 10.0 | 16.0 | 0.00 | 0.00 | 0.00 | 33 | 1015.0 |
| 20260507175618 | 63 | 113 | 7.0 | 12.0 | 0.00 | 0.00 | 0.00 | 33 | 1014.9 |
| 20260507174626 | 62 | 5 | 6.0 | 18.0 | 0.00 | 0.00 | 0.00 | 33 | 1014.9 |
| 20260507173615 | 62 | 286 | 8.0 | 16.0 | 0.00 | 0.00 | 0.00 | 33 | 1015.0 |
| 20260507172628 | 63 | 106 | 7.0 | 15.0 | 0.00 | 0.00 | 0.00 | 32 | 1015.0 |
| 20260507171615 | 63 | 152 | 6.0 | 14.0 | 0.00 | 0.00 | 0.00 | 32 | 1015.1 |
| 20260507170624 | 63 | 192 | 6.0 | 14.0 | 0.00 | 0.00 | 0.00 | 31 | 1015.1 |
| 20260507165624 | 63 | 303 | 6.0 | 15.0 | 0.00 | 0.02 | 0.00 | 33 | 1015.2 |
| 20260507164638 | 62 | 137 | 6.0 | 16.0 | 0.00 | 0.02 | 0.00 | 31 | 1015.2 |
| 20260507163645 | 61 | 298 | 5.0 | 13.0 | 0.00 | 0.02 | 0.00 | 34 | 1015.4 |
| 20260507162614 | 61 | 295 | 6.0 | 14.0 | 0.00 | 0.02 | 0.00 | 32 | 1015.5 |
| 20260507161619 | 60 | 292 | 5.0 | 12.0 | 0.00 | 0.02 | 0.00 | 34 | 1015.5 |
| 20260507160612 | 60 | 269 | 3.0 | 8.0 | 0.00 | 0.02 | 0.00 | 36 | 1015.6 |